Content
SEND FEEDBACK

Daily
Averages
Monthly
Summary
United States of America

VOLCANO, HAWAII


Home > North America > United States > Hawaii
Elevation: 3800 feet     Latitude: 19 26N     Longitude: 155 16W

WEATHER
 
SELECT A DAY
Number of Records: 234,089;   Date Range: 1/1/95 - 9/29/14
 
SHARE

PRINT THIS DATA

[ ← Previous Day ]
WEATHER ALMANAC - MAY 14, 2013
[ Next Day → ]
[ °C ]   °F
Weather ElementAverageHighLow
Temperature75.1 °F84 °F (1:53 pm)66.9 °F (3:53 am)
Dewpoint64.8 °F69.1 °F (11:12 am)60.1 °F (4:53 am)
Humidity71.1 %87 % (6:53 am)54 % (8:53 am)
Barometer30.10 in30.15 in (9:53 pm)30.06 in (3:53 pm)
Wind Speed6.2 mph11.5 mph (10:53 am)
Weather ElementAverage
Visibility9.9 mi
Wind DirectionSE (136 °)

Weather ElementTotal
Precipitation0.01 in
Cooling Degree Days10.5 (Base 65)
Growing Degree Days25.5 (Base 50)
Averaged from 20 records on May 14, 2013
WEATHER CONDITIONS BREAKOUT
WIND DIRECTION BREAKOUT
WEATHER BY HOUR - MAY 14, 2013
[ °C ]   °F
Local TimeTemperatureDewpointHumidityBarometerVisibilityWind DirectionWind SpeedGust SpeedPrecipitationEventsConditions
1:53 AM70.0 °F63.0 °F78 %30.08 in10.0 miCalm0.00 inMostly Cloudy
2:53 AM69.1 °F62.1 °F78 %30.07 in10.0 miWSW (250°)5.8 mphScattered Clouds
3:53 AM66.9 °F61.0 °F81 %30.07 in10.0 miCalmPartly Cloudy
4:53 AM69.1 °F60.1 °F73 %30.07 in10.0 miSW (230°)5.8 mphMostly Cloudy
5:53 AM69.1 °F60.1 °F73 %30.08 in10.0 miSouth (170°)4.6 mphMostly Cloudy
6:53 AM70.0 °F66.0 °F87 %30.10 in10.0 miSSW (200°)4.6 mph0.01 inMostly Cloudy
7:53 AM75.9 °F62.1 °F62 %30.11 in10.0 miWest (260°)8.1 mphScattered Clouds
8:53 AM80.1 °F62.1 °F54 %30.11 in10.0 miENE (70°)4.6 mphMostly Cloudy
9:53 AM79.0 °F66.0 °F64 %30.11 in10.0 miENE (60°)6.9 mphMostly Cloudy
10:53 AM79.0 °F66.0 °F64 %30.11 in10.0 miENE (60°)11.5 mphMostly Cloudy
11:12 AM73.9 °F69.1 °F85 %30.12 in8.0 miESE (110°)9.2 mph0.00 inRainLight Rain
11:53 AM75.0 °F69.1 °F82 %30.11 in10.0 miWNW (300°)9.2 mph0.00 inRainLight Rain
12:53 PM79.0 °F66.0 °F64 %30.09 in10.0 miNNW (330°)4.6 mph0.00 inMostly Cloudy
1:46 PM81.0 °F68.0 °F65 %30.08 in10.0 miNNE (30°)6.9 mph0.00 inRainLight Rain
1:53 PM84.0 °F68.0 °F58 %30.08 in10.0 miNE (50°)8.1 mph0.00 inMostly Cloudy
2:53 PM81.0 °F66.0 °F60 %30.07 in10.0 miNNE (20°)9.2 mphMostly Cloudy
3:53 PM80.1 °F64.9 °F60 %30.06 in10.0 miNNE (20°)6.9 mphScattered Clouds
6:53 PM75.9 °F64.9 °F69 %30.10 in10.0 miENE (70°)5.8 mphOvercast
9:53 PM72.0 °F66.9 °F84 %30.15 in10.0 miWSW (250°)4.6 mphPartly Cloudy
11:53 PM71.1 °F64.9 °F81 %30.13 in10.0 miWSW (240°)6.9 mphOvercast
Hourly data recorded from PHTO, located miles away from Volcano, Hawaii







STORIES FROM OUR PARTNERS